DMSP 5D-2 F13 DEB, 40409

Orbit data source: Space-Track

DMSP 5D-2 F13 DEB, 40409 is space debris in SSO originally from a launch on Fri, 24 Mar 1995 UTC launched from the Air Force Western Test Range (AFWTR). Debris objects in space refer to the collection of defunct objects orbiting the Earth. Examples of debris include non-operational satellites, rocket bodies, and fragments generated from explosions, collisions, or faulty payload assembly.

Loading next visibility...
Identifier
40409, 1995-015W
Orbit
SSO
Country
Flag of USUS
Related business
Manufacturer
Unknown
Mission
Spacecraft
Bus & Motor
Unknown
Mass
Unknown
Launch date (UTC)
1995-03-24 (31 years ago)
Launch vehicle
Unknown
Launch site
Air Force Western Test Range (AFWTR)
Object type
Payload
Rocket body
Debris
Shape & HBR
Unknown shape, 0.1 m
Radar Cross Section
Small (<0.1 m²)

Expand to show TLE details & history
Last TLE update: 19 hours ago

TLE from 19 hours ago
0 DMSP 5D-2 F13 DEB
1 40409U 95015W   25288.77255510  .00002744  00000-0  11728-2 0  9992
2 40409  98.7575 309.0799 0002050  85.4588 274.6826 14.25809203550911
Epoch: 2025-10-15T18:32Z
TLE epoch observation values (Epoch: 2025-10-15T18:32:28.760Z)
Latitude
Longitude
6.41824°
Altitude
808.574 km
Speed
7.449 km/s
True Right ascension
20h 36m 19s
True Declination
0° 00' 00"
Sunlit
Object was in daylight at epoch
Visualization orbit readout
Latitude
Unknown
Longitude
Unknown
Altitude
Unknown
Speed
Unknown
Apparent Right ascension
Unknown
Apparent Declination
Unknown
Sunlit
N/A
Visualization observer readout
Local Sidereal Time
07:52:30
Azimuth
Unknown
Elevation
Unknown
Doppler factor
Unknown
Orbital elements
Apogee altitude
804.399 km
Perigee altitude
801.454 km
Semi-major axis
7,181.063 km
Eccentricity
0.00021
Inclination
98.7575°
RAAN
309.0799°
Arg. of periapsis
85.4588°
True anomaly
274.65919°
Mean anomaly
274.6826°
Eccentric anomaly
274.67089°
Mean motion
3.56665 °/min
Orbital period
100.94 mins
BSTAR
0.0011728
Loading maneuver chart data...
Computing Atmospheric mass density...

Documentation

Showing up to 5 results
|